Wind_Speed
12 12 12 11 11 11 11 11 11 11 10 10 10 9 8 8 8 8 8 8 7 7 7 6 5 6 5 5 4 4 5 5 5 6 6 6 6 7 7 7 8 8 9
10 11 11 11 11 11 10 10 10 10 9 9 9 9 9 8 7 7 7 8 8 7 7 6 6 7 6 6 5 5 5 5 5 6 6 7 7 7 7 8 9 9 9
9 9 9 10 10 10 10 10 10 9 9 9 9 9 9 8 8 7 7 7 7 7 6 6 7 7 7 7 7 6 6 6 6 6 7 7 7 8 9 9 9 10 10
8 9 9 9 9 9 9 9 9 9 9 8 8 8 8 8 7 7 7 7 7 6 6 7 7 8 8 8 8 7 7 7 7 7 8 7 8 9 9 9 10 10 11
7 7 7 7 8 8 8 8 9 8 8 8 8 8 8 8 7 7 7 7 7 6 7 7 8 8 8 9 8 8 8 8 8 9 8 9 10 10 10 10 10 11 11
4 5 6 6 6 6 7 7 7 7 7 7 7 8 8 8 7 7 7 7 7 7 7 7 8 9 9 9 9 8 9 9 9 10 9 9 10 10 10 10 10 10 10
3 4 5 5 5 5 6 6 6 7 7 7 7 7 7 8 7 8 7 7 7 7 7 8 8 9 9 9 9 9 9 9 10 10 10 10 10 10 10 11 12 12 12
2 3 4 4 5 6 7 6 6 6 7 7 7 6 7 8 7 8 8 8 7 7 7 8 8 9 9 9 9 9 9 9 10 10 10 10 11 11 12 12 13 13 14
2 3 3 4 5 6 6 7 7 7 7 7 7 6 7 8 7 9 9 9 8 7 7 8 8 9 9 10 10 10 9 10 10 10 11 11 11 13 13 13 13 14 14
4 3 4 4 5 5 6 7 8 8 8 9 9 8 7 7 8 9 9 9 9 9 9 9 9 10 10 11 11 10 10 10 11 11 12 12 12 13 13 13 14 15 14
4 4 5 5 6 7 7 8 8 9 9 10 10 10 9 9 10 10 10 10 10 10 10 10 10 11 12 12 12 11 12 12 12 13 13 13 14 14 14 15 15 15 15
5 5 5 6 7 7 8 9 10 11 11 11 11 11 10 10 11 11 11 11 11 11 11 11 12 13 13 13 13 13 13 13 13 13 14 14 15 15 16 16 16 16 15
7 6 7 7 8 8 9 10 11 12 12 12 12 11 11 11 11 12 12 12 11 12 12 13 14 14 13 13 14 14 15 14 14 14 14 15 15 16 17 17 17 17 17
10 9 10 10 10 10 11 11 12 12 13 13 12 12 11 11 12 13 13 12 13 13 14 14 15 15 15 15 16 16 16 16 16 15 16 16 16 17 17 18 18 18 19
13 12 12 12 12 13 13 13 13 13 13 14 13 12 12 12 13 13 13 13 14 15 15 16 16 16 16 17 17 17 17 18 17 17 17 17 18 19 19 19 20 20 20
16 15 15 15 15 14 14 14 14 15 15 15 14 14 14 14 14 14 14 15 16 16 17 17 17 18 18 19 19 19 20 20 19 18 19 19 19 21 21 22 22 22 23
17 17 17 17 16 15 15 16 16 16 17 17 16 15 15 15 15 16 17 17 17 18 18 18 19 19 20 20 20 21 21 21 20 21 21 21 21 22 23 23 24 24 25
21 20 19 18 17 17 17 17 17 17 17 17 17 16 16 16 16 17 18 19 20 20 20 20 21 21 21 21 21 21 21 21 21 22 22 23 23 23 24 24 25 25 25
21 21 20 20 19 19 19 20 19 19 18 17 17 18 18 18 18 19 20 21 21 22 22 22 23 23 23 22 22 22 22 23 23 24 24 25 25 25 26 25 26 26 26
22 23 22 21 21 21 21 21 20 20 20 19 20 20 21 21 21 21 22 22 23 23 24 24 24 24 24 24 24 24 24 25 25 25 26 26 27 27 27 27 27 26 26
25 24 23 23 22 22 22 21 21 21 21 21 21 22 22 22 23 23 24 25 25 25 25 25 25 25 25 26 26 26 26 27 27 28 28 28 29 29 29 29 28 28 28
26 26 25 24 24 24 24 23 22 22 22 22 22 22 23 24 24 25 26 26 26 27 27 27 26 26 26 26 27 28 29 29 29 29 30 30 30 31 30 29 29 29 29
28 27 26 25 25 25 25 24 24 24 24 24 24 24 25 25 25 26 26 27 27 28 28 27 27 27 27 27 28 29 30 31 31 31 31 32 32 31 30 29 29 30 30
29 28 27 26 26 26 26 25 26 26 26 27 26 26 26 26 27 27 27 27 27 27 27 28 28 28 28 29 29 30 31 31 32 32 32 32 32 32 30 29 30 30 31
31 30 28 27 27 27 28 27 27 28 28 28 28 27 27 27 27 27 26 27 27 28 28 28 28 28 29 29 30 31 31 32 32 32 31 31 31 31 31 31 31 31 32
31 31 30 30 29 29 29 29 30 30 29 29 29 28 28 27 27 27 27 27 28 29 28 28 28 29 29 30 30 31 31 31 32 32 32 31 31 31 31 31 31 31 31
Wind_Direction
56 56 57 59 62 63 63 64 63 62 63 65 64 63 62 61 56 51 46 41 38 40 38 35 24 16 9 4 357 344 340 336 334 328 321 318 314 301 303 307 307 303 298
52 54 53 54 58 60 59 59 59 60 62 61 57 56 56 53 49 46 42 39 38 38 34 33 28 21 15 6 360 355 346 340 334 328 321 319 318 306 302 303 305 304 302
49 50 49 50 54 57 56 57 57 58 59 59 56 53 50 45 40 36 35 34 30 30 36 33 26 22 15 10 7 359 351 345 341 333 326 320 315 312 311 305 305 308 311
47 46 46 45 48 51 51 52 54 55 56 57 52 46 42 38 35 31 27 26 24 25 27 25 20 19 14 8 5 360 353 348 343 339 334 327 321 315 313 310 309 310 312
49 41 42 41 42 44 43 43 46 47 49 49 44 37 32 30 26 23 18 16 16 19 18 16 11 6 3 1 2 1 355 352 349 347 343 336 333 330 320 316 311 309 311
54 44 38 34 33 34 36 36 35 35 38 39 35 28 23 19 15 14 13 11 11 12 10 5 1 358 355 356 355 353 349 347 346 345 344 341 340 337 328 322 321 317 314
40 42 34 29 18 17 19 21 23 21 22 25 25 21 16 11 7 8 7 4 4 3 359 357 353 350 350 347 346 345 343 341 341 341 340 338 336 333 332 330 327 323 320
342 11 15 10 8 8 9 9 10 9 7 7 9 7 4 3 5 6 2 357 352 350 349 349 349 348 347 343 339 340 339 337 337 337 338 338 335 333 331 328 327 324 318
313 354 355 353 349 353 358 357 359 360 360 359 358 357 356 358 0 359 355 355 347 337 337 343 348 349 347 342 336 334 334 333 333 332 331 331 331 332 332 330 328 326 324
306 320 327 332 328 336 342 338 340 344 346 343 343 344 348 345 347 351 351 350 346 340 338 342 343 343 342 337 333 333 333 331 330 327 324 323 324 327 327 327 327 325 323
273 288 302 309 314 320 324 326 328 332 333 333 333 335 335 336 338 344 348 346 342 341 339 340 338 335 335 334 333 330 333 331 328 325 321 319 319 320 322 322 322 321 321
267 277 294 301 303 305 310 314 317 320 322 324 325 326 327 327 330 334 335 335 334 333 334 333 331 330 329 327 329 327 327 328 324 321 319 316 315 315 320 320 319 317 316
263 272 284 292 292 292 298 302 305 309 312 313 314 316 317 319 322 324 325 325 326 326 327 326 325 324 322 321 321 320 319 322 320 316 314 313 312 313 316 319 318 317 314
267 274 282 283 281 282 288 294 296 299 303 306 306 308 310 312 314 316 320 320 321 320 319 319 317 317 316 316 315 314 315 316 315 312 311 311 311 312 313 315 318 318 316
265 271 277 282 285 286 284 288 293 295 297 300 300 302 305 306 307 308 314 318 319 320 316 314 312 311 310 310 310 309 309 309 310 309 308 308 309 309 309 310 312 314 314
265 273 275 280 282 285 283 285 289 293 294 298 298 299 301 302 303 305 307 312 314 315 313 312 310 308 307 308 307 306 305 307 307 306 304 303 303 303 304 306 307 309 311
268 273 277 279 278 278 280 283 285 288 291 292 292 294 297 300 302 304 306 308 309 309 308 308 307 305 304 307 307 306 304 305 304 304 303 302 301 300 301 303 305 306 307
272 275 276 276 274 275 278 281 283 286 288 286 286 289 294 298 300 301 304 305 305 307 306 304 304 305 305 303 302 303 304 304 305 303 302 301 301 301 301 302 303 304 304
270 272 275 275 274 274 276 279 282 284 285 283 284 288 292 295 297 298 301 302 303 306 306 307 306 304 303 301 301 301 302 303 304 303 302 302 303 302 302 301 301 301 302
267 271 273 274 274 273 274 276 279 281 283 285 287 288 290 294 296 296 298 300 301 302 303 303 303 303 302 300 299 299 299 300 301 301 302 302 302 300 299 298 298 299 300
265 267 270 272 273 274 273 273 275 278 281 282 283 284 288 292 294 294 295 297 299 301 301 301 301 301 300 299 298 297 297 298 299 299 299 299 299 299 298 296 295 295 297
264 266 267 269 271 273 273 271 271 274 277 279 281 284 287 290 293 294 294 295 297 300 300 299 298 298 298 299 298 298 297 297 296 297 297 297 298 298 297 294 293 295 296
263 265 268 268 270 272 273 272 271 273 275 277 280 283 285 287 290 292 292 294 297 298 298 297 297 297 298 298 298 299 298 297 297 297 298 297 297 299 296 294 294 295 295
262 264 266 269 271 272 271 271 274 277 277 275 278 281 283 285 288 290 291 293 295 297 297 296 297 297 297 298 299 299 298 297 297 296 296 295 296 296 296 296 295 295 294
261 265 266 268 270 270 270 272 275 277 279 280 279 279 283 284 286 288 290 292 294 297 298 297 298 299 299 299 299 299 298 297 297 296 296 297 297 296 297 297 297 296 296
263 264 265 266 269 269 270 271 273 275 278 280 282 284 286 284 285 287 288 291 294 295 296 297 298 300 300 298 298 299 298 297 297 296 296 297 297 296 296 296 296 295 296
Height
5916 5915 5914 5913 5912 5912 5911 5910 5910 5909 5908 5907 5906 5905 5904 5904 5903 5902 5900 5899 5898 5896 5895 5894 5893 5892 5891 5890 5889 5888 5887 5886 5885 5883 5882 5881 5880 5879 5878 5876 5875 5874 5872
5918 5917 5916 5915 5914 5913 5912 5911 5911 5910 5909 5909 5908 5907 5906 5905 5904 5902 5901 5900 5898 5897 5895 5894 5893 5892 5890 5889 5888 5887 5886 5885 5884 5883 5881 5880 5879 5877 5876 5875 5873 5872 5870
5919 5918 5917 5916 5915 5915 5914 5913 5912 5911 5910 5910 5909 5908 5906 5905 5904 5903 5902 5900 5899 5897 5896 5894 5893 5892 5890 5889 5887 5886 5885 5884 5883 5881 5880 5879 5877 5876 5874 5872 5871 5869 5868
5920 5919 5918 5917 5917 5916 5915 5914 5913 5912 5911 5910 5909 5909 5907 5906 5905 5904 5902 5901 5899 5898 5896 5895 5893 5892 5890 5889 5887 5885 5884 5883 5881 5880 5878 5877 5876 5874 5872 5871 5869 5867 5865
5920 5920 5919 5918 5918 5917 5916 5915 5914 5913 5912 5911 5910 5909 5908 5906 5905 5903 5902 5901 5899 5898 5896 5895 5893 5892 5890 5888 5887 5885 5883 5882 5880 5878 5877 5875 5874 5872 5870 5869 5867 5865 5862
5919 5919 5919 5919 5918 5917 5916 5916 5915 5914 5913 5911 5910 5909 5908 5906 5905 5903 5902 5900 5899 5897 5896 5894 5893 5891 5889 5887 5886 5884 5882 5881 5879 5877 5875 5873 5872 5870 5868 5866 5864 5862 5860
5919 5919 5919 5918 5918 5917 5916 5915 5915 5913 5912 5911 5910 5909 5907 5906 5904 5903 5902 5900 5898 5896 5895 5893 5892 5890 5888 5886 5884 5883 5881 5879 5877 5876 5874 5872 5870 5868 5866 5864 5862 5859 5857
5918 5918 5918 5918 5917 5916 5915 5915 5914 5913 5912 5911 5910 5908 5907 5905 5903 5902 5901 5899 5897 5896 5894 5892 5891 5889 5887 5885 5883 5881 5880 5878 5876 5874 5872 5870 5868 5866 5864 5862 5860 5857 5855
5916 5916 5916 5917 5917 5916 5915 5915 5914 5913 5912 5910 5909 5907 5906 5904 5902 5901 5899 5898 5896 5894 5893 5891 5889 5887 5885 5883 5882 5880 5878 5876 5874 5872 5870 5868 5866 5864 5861 5859 5857 5855 5852
5915 5915 5915 5915 5915 5914 5914 5914 5913 5912 5911 5909 5908 5906 5905 5903 5902 5900 5898 5897 5895 5893 5891 5889 5888 5886 5884 5882 5880 5878 5876 5874 5872 5870 5868 5866 5864 5861 5859 5857 5854 5852 5850
5914 5914 5914 5914 5913 5913 5913 5913 5912 5911 5910 5908 5907 5905 5903 5902 5900 5899 5897 5895 5893 5891 5889 5888 5886 5884 5882 5880 5878 5876 5874 5872 5870 5868 5866 5863 5861 5859 5856 5854 5852 5849 5847
5912 5912 5912 5912 5912 5911 5911 5911 5910 5909 5908 5906 5905 5903 5902 5900 5899 5897 5895 5893 5891 5889 5887 5885 5883 5881 5879 5877 5875 5873 5871 5869 5867 5865 5863 5860 5858 5856 5853 5851 5848 5846 5843
5909 5910 5910 5910 5909 5909 5909 5908 5908 5907 5905 5904 5902 5901 5900 5898 5896 5895 5893 5891 5889 5887 5885 5883 5881 5879 5877 5875 5872 5870 5868 5866 5864 5861 5859 5857 5855 5852 5850 5847 5844 5842 5839
5906 5907 5907 5907 5907 5906 5906 5905 5904 5903 5902 5900 5899 5898 5896 5895 5894 5892 5890 5888 5886 5884 5882 5880 5877 5875 5873 5871 5869 5867 5864 5862 5860 5857 5855 5853 5851 5848 5846 5843 5841 5838 5835
5901 5903 5903 5904 5903 5903 5902 5902 5901 5900 5899 5897 5896 5894 5893 5891 5890 5888 5886 5884 5882 5880 5878 5876 5873 5871 5869 5867 5865 5862 5860 5858 5856 5853 5851 5848 5846 5844 5841 5839 5836 5834 5831
5897 5898 5898 5898 5898 5898 5898 5897 5897 5896 5895 5893 5892 5891 5889 5888 5886 5884 5882 5880 5878 5876 5873 5871 5869 5866 5864 5862 5860 5858 5855 5853 5851 5848 5846 5843 5841 5838 5836 5833 5831 5828 5826
5892 5893 5893 5893 5893 5894 5893 5893 5892 5891 5890 5889 5888 5886 5885 5883 5881 5879 5878 5876 5873 5871 5868 5865 5863 5861 5859 5857 5855 5852 5850 5847 5845 5842 5840 5837 5834 5832 5830 5827 5825 5822 5819
5887 5888 5888 5888 5888 5888 5888 5887 5887 5886 5884 5883 5883 5882 5880 5879 5877 5875 5873 5871 5868 5865 5862 5858 5857 5855 5853 5851 5849 5846 5844 5841 5839 5836 5833 5830 5828 5825 5823 5820 5818 5815 5813
5881 5882 5882 5883 5883 5883 5882 5882 5881 5880 5879 5877 5877 5877 5875 5873 5872 5870 5868 5866 5863 5860 5857 5854 5852 5850 5847 5844 5842 5840 5837 5835 5833 5830 5827 5824 5821 5818 5816 5813 5811 5808 5806
5875 5876 5877 5877 5876 5876 5876 5876 5875 5875 5874 5873 5872 5871 5869 5867 5865 5863 5862 5860 5857 5855 5852 5849 5846 5843 5841 5838 5835 5833 5831 5828 5826 5823 5820 5817 5814 5811 5807 5805 5803 5801 5798
5869 5869 5870 5870 5870 5869 5869 5869 5869 5868 5868 5866 5865 5864 5863 5861 5859 5857 5855 5853 5850 5848 5845 5842 5839 5837 5834 5831 5828 5825 5823 5820 5818 5815 5813 5809 5806 5803 5800 5797 5795 5792 5790
5863 5863 5864 5864 5863 5863 5862 5862 5862 5862 5861 5860 5858 5857 5856 5854 5852 5850 5848 5845 5843 5841 5838 5835 5832 5829 5827 5824 5821 5818 5815 5812 5809 5807 5804 5801 5798 5795 5792 5789 5787 5784 5782
5855 5856 5856 5856 5856 5856 5855 5855 5855 5854 5853 5852 5851 5850 5848 5846 5844 5842 5840 5838 5836 5833 5830 5828 5825 5822 5819 5816 5814 5810 5807 5804 5801 5798 5795 5792 5789 5786 5783 5781 5778 5776 5773
5847 5848 5848 5848 5848 5848 5847 5847 5847 5846 5845 5844 5843 5842 5840 5839 5837 5835 5833 5830 5828 5825 5823 5820 5817 5814 5811 5809 5806 5802 5799 5796 5792 5789 5786 5783 5780 5777 5775 5772 5769 5767 5764
5838 5839 5840 5840 5840 5840 5839 5839 5838 5838 5837 5835 5833 5833 5832 5830 5829 5827 5825 5822 5820 5817 5815 5812 5809 5806 5803 5800 5797 5794 5791 5787 5784 5781 5778 5775 5772 5769 5766 5763 5760 5758 5755
5829 5830 5831 5831 5831 5831 5831 5830 5829 5829 5828 5827 5826 5825 5824 5822 5820 5819 5817 5814 5812 5809 5806 5803 5801 5798 5795 5792 5789 5785 5782 5779 5775 5772 5769 5766 5763 5760 5757 5754 5751 5748 5745